Regional Weather Roundup
Issued by NWS

Home | Current Version | Previous Version | Text Only | Print | Product List | Glossary Off
Versions: 1 2 3 4 5 6 7 8 9 10 11 12 13 14 15 16 17 18 19 20 21 22 23 24 25 26 27 28 29 30 31 32 33 34 35 36 37 38 39 40 41 42 43 44 45 46 47 48 49 50

000
ASUS43 KIND 170200
RWRIN

WEATHER ROUNDUP FOR INDIANA
NATIONAL WEATHER SERVICE INDIANAPOLIS IN
1000 PM EDT WED AUG 16 2017

NOTE: "FAIR" INDICATES FEW OR NO CLOUDS BELOW 12,000 FEET WITH NO
SIGNIFICANT WEATHER AND/OR OBSTRUCTIONS TO VISIBILITY.

* - STATION DOES NOT REPORT WEATHER SUCH AS PRECIPITATION OR FOG.

+ - STATION NOT QUALITY CONTROLLED BY THE NATIONAL WEATHER SERVICE.
    USE DATA WITH CAUTION...ESPECIALLY DEWPOINT AND RELATIVE
    HUMIDITY OBSERVATIONS.

INZ001>003-010>013-019-020-170300-
NORTHWEST INDIANA

CITY           SKY/WX    TMP DP  RH WIND       PRES   REMARKS
GARY /AIRPORT/ CLOUDY    81  72  74 SE5       29.90R
MICHIGAN CITY+ CLOUDY    79  68  69 CALM      29.92R
MONTICELLO +   MOCLDY    80  72  76 S6        29.92S
RENSSELAER +   CLOUDY    77  68  73 S7        29.91S

$$

LMZ046-743>745-170300-
SOUTHERN LAKE MICHIGAN

STATION/POSITION TIME  TEMP    WIND        PRES    WAVE
                       AIR SEA DIR/SP/G            HT
                 (UTC) (F)     (DEG/KT/KT) (MB)    (FT)
BURNS HARBOR     0103   83     180/  5/ 13 1012.5
MICHIGAN CITY    0130   81     150/  7/  9   N/A
5NW MICH CITY    0150   78 76  160/  4/  6   N/A     1

$$

INZ004-005-014>016-021>024-170300-
NORTH CENTRAL INDIANA

CITY           SKY/WX    TMP DP  RH WIND       PRES   REMARKS
GOSHEN         CLOUDY    80  67  64 SE7       29.93F
PERU/GRISSOM   MOCLDY    79  72  80 S6        29.93S
SOUTH BEND     CLOUDY    81  68  64 S10       29.93R

$$

INZ006>009-017-018-025>027-170300-
NORTHEAST INDIANA

CITY           SKY/WX    TMP DP  RH WIND       PRES   REMARKS
FORT WAYNE     CLOUDY    78  68  71 SE5       29.96S
KENDALLVILLE + MOCLDY    75  67  76 SE5       29.97S

$$

INZ028-029-035-036-043>045-051>053-170300-
WEST CENTRAL INDIANA

CITY           SKY/WX    TMP DP  RH WIND       PRES   REMARKS
LAFAYETTE      CLOUDY    79  72  79 S7        29.91S
TERRE HAUTE    CLOUDY    79  73  82 SE7       29.92F

$$

INZ030>032-037>040-046>048-054>057-064-065-170300-
CENTRAL INDIANA

CITY           SKY/WX    TMP DP  RH WIND       PRES   REMARKS
COLUMBUS       CLEAR     81  70  69 SW7       29.97S
GREENWOOD *+   MOCLDY    79  70  74 S5        29.97R
INDIANAPOLIS   MOCLDY    79  72  79 S9        29.94S
-EAGLE CREEK   CLOUDY    82  71  69 MISG      29.94S
KOKOMO +       CLOUDY    77  72  84 S6        29.95S
MT COMFORT *+  CLOUDY    77  72  83 S3        29.97S
SHELBYVILLE    CLOUDY    81  70  69 S6        29.96R

$$

INZ033-034-041-042-049-050-058-059-170300-
EAST CENTRAL INDIANA

CITY           SKY/WX    TMP DP  RH WIND       PRES   REMARKS
MUNCIE         PTCLDY    81  69  67 SE3       29.97R
RICHMOND +     CLEAR     70  70 100 SE3       30.01R

$$

INZ060-061-067>069-081>083-085>088-170300-
SOUTHWEST INDIANA

CITY           SKY/WX    TMP DP  RH WIND       PRES   REMARKS
EVANSVILLE     PTCLDY    78  71  79 W3        29.95S
HUNTINGBURG +  PTCLDY    79  76  90 SE6       29.97R

$$

INZ062-063-066-070>080-084-089>092-170300-
SOUTH CENTRAL AND SOUTHEAST INDIANA

CITY           SKY/WX    TMP DP  RH WIND       PRES   REMARKS
BLOOMINGTON    CLOUDY    79  71  76 S3        29.96S
MADISON *+     CLOUDY    77  72  83 CALM      30.00S
SEYMOUR +      CLOUDY    79  73  83 S3        29.97R

$$




USA.gov is the U.S. government's official web portal to all federal, state and local government web resources and services.